Regional Weather Roundup
Issued by NWS

Home | Current Version | Previous Version | Text Only | Print | Product List | Glossary On
Versions: 1 2 3 4 5 6 7 8 9 10 11 12 13 14 15 16 17 18 19 20 21 22 23 24 25 26 27 28 29 30 31 32 33 34 35 36 37 38 39 40 41 42 43 44 45 46 47 48 49 50
000
ASUS45 KTFX 180604
RWRMT
MONTANA HOURLY WEATHER ROUNDUP
NATIONAL WEATHER SERVICE GREAT FALLS MT
1204 AM MDT FRI APR 18 2014

NOTE: "FAIR" INDICATES FEW OR NO CLOUDS BELOW 12000 FEET WITH NO
SIGNIFICANT WEATHER AND/OR OBSTRUCTIONS TO VISIBILITY.

* THESE STATIONS ARE NOT UNDER NWS QUALITY CONTROL. THEY DO NOT
   REPORT WEATHER SUCH AS PRECIPITATION OR FOG.

MTZ001>007-043-180700-
WEST OF THE DIVIDE
CITY           SKY/WX    TMP DP  RH WIND       PRES   REMARKS
KALISPELL      LGT RAIN  45  43  93 S8        29.71F
MISSOULA       LGT RAIN  45  45 100 NW5       29.76S
BUTTE          CLOUDY    43  30  60 SE8       29.72S
MULLAN PASS    LGT SNOW  32  30  92 SW8       29.74S VSB 1/2  WCI  25
* ESSEX        N/A       36  35  96 N/A        N/A
* LINCOLN      N/A       43  38  83 S3         N/A
* LOOKOUT PASS N/A       36  36 100 NW1        N/A
* POLSON       N/A       42  42 100 SE2        N/A
* RONAN APT    CLOUDY    45  43  93 N/A        N/A
* SEELEY LAKE  N/A       40  39  96 N/A        N/A
* THOMP F APT  CLOUDY    47  22  37 SE6G16     N/A
$$

MTZ008-052>055-180700-
SOUTHWEST MONTANA
CITY           SKY/WX    TMP DP  RH WIND       PRES   REMARKS
BOZEMAN        CLOUDY    48  28  46 SE12      29.70F
DILLON         MOCLDY    57  25  29 S29G38    29.68F
W YELLOWSTONE  N/A       39  25  57 N/A        N/A
* THREE FORKS  MOCLDY    54  30  40 N/A        N/A
* BOULDER HILL N/A       45  29  54 SW6        N/A
* MONIDA PASS  N/A       43  23  45 S13        N/A
* RAYNOLDS PAS N/A       40  25  55 S14G20     N/A   WCI  32
* WHITEHALL    N/A       53  25  34 E3         N/A
* WISE RIVER   N/A       41  30  65 W5         N/A
$$

MTZ009>010-012-014-046-048-049-054-180700-
EAST SLOPES AND CENTRAL MONTANA
CITY           SKY/WX    TMP DP  RH WIND       PRES   REMARKS
CUT BANK       CLOUDY    45  36  71 SW15      29.66F
GREAT FALLS    CLOUDY    46  43  89 CALM      29.68F
HELENA         CLOUDY    52  37  57 W7        29.65F
MALMSTROM AFB  CLOUDY    46  41  83 SE9       29.66F
* CONRAD       MOCLDY    45  37  74 N/A        N/A
* DEARBORN     N/A       52  38  59 NE6        N/A
* EAST GLACIER N/A       40  34  79 W18G24     N/A   WCI  31
* MONARCH      N/A       40  35  82 S3         N/A
* PENDROY      N/A       44  33  65 SW6        N/A
* ROGERS PASS  N/A       41  34  76 SW3G11     N/A
* SAINT MARY   N/A       36  31  82 SE2G7      N/A
* SWEET GRASS  N/A       44  40  86 SW11       N/A
$$

MTZ011-013-016-021-035-040-045-047-050-051-180700-
NORTH CENTRAL MONTANA
CITY           SKY/WX    TMP DP  RH WIND       PRES   REMARKS
HAVRE          CLOUDY    48  37  66 NE8       29.69F
LEWISTOWN      CLOUDY    45  34  65 E7        29.75F
* CHESTER      N/A       47  36  66 S5         N/A
* DENTON       N/A       45  34  65 SW2        N/A
* GEYSER       N/A       43  41  93 S8         N/A
* JUDITH GAP   N/A       42  28  58 SW8        N/A
* LOMA         N/A       50  43  77 SE3G9      N/A
$$

MTZ017>020-022>027-061-062-180700-
NORTHEAST MONTANA
CITY           SKY/WX    TMP DP  RH WIND       PRES   REMARKS
GLASGOW        MOCLDY    45  30  56 E20       29.80F
GLENDIVE       PTCLDY    45  30  56 SE10      29.90F
JORDAN         PTCLDY    46  43  89 E7        29.79F
SIDNEY         CLOUDY    43  30  60 SE6       29.96F
WOLF POINT     CLOUDY    46  30  54 E10       29.87F
* BEAVER HILL  N/A       40  30  68 E27G34     N/A   WCI  29
* CIRCLE       N/A       48  34  59 SE10       N/A
* LINDSAY DVD  N/A       40  30  68 E11        N/A   WCI  33
* NAVAJO       N/A       35  30  82 SE8G13     N/A   WCI  28
* SACO         N/A       44  32  63 E16G22     N/A
$$

MTZ028>042-056>058-180700-
SOUTHCENTRAL AND SOUTHEAST MONTANA
CITY           SKY/WX    TMP DP  RH WIND       PRES   REMARKS
BAKER          MOCLDY    39  30  70 SE17G30   29.90F WCI  30
BILLINGS       MOCLDY    52  32  47 SE6       29.74F
LIVINGSTON     MOCLDY    46  28  50 NE6       29.72F
MILES CITY     PTCLDY    48  36  63 S13       29.81F
* LAUREL APT   PTCLDY    46  28  50 W6         N/A
* ROUNDUP APT  MOCLDY    48  32  54 N/A        N/A
* HYSHAM       N/A       51  24  35 SE4G9      N/A
* LAME DEER    N/A       47  32  56 SE9        N/A
* REED POINT   N/A       43  31  63 E2         N/A
* ROSCOE HILL  N/A       51  12  21 SW8G14     N/A
$$

REGIONAL REPORTS...DAKOTAS
CITY           SKY/WX    TMP DP  RH WIND       PRES   REMARKS
WILLISTON      LGT RAIN  39  27  62 SE8       29.99F WCI  33
DICKINSON      CLOUDY    36  25  64 SE14      29.98F WCI  27
CROSBY         CLEAR     30  27  89 E13       30.02F WCI  20
TIOGA          CLEAR     32  25  75 SE13      30.05F WCI  22
WATFORD CITY   CLOUDY    37  27  67 SE14      29.98S WCI  28
BISMARCK       FAIR      34  25  70 SE14      30.13S WCI  24
GRAND FORKS    CLOUDY    32  21  64 E6        30.30R WCI  26
FARGO          MOCLDY    34  21  59 NE7       30.28S WCI  28
BUFFALO SD     CLOUDY    37  28  70 SE20      29.86F WCI  27
RAPID CITY     MOCLDY    37  34  89 SE9       29.94F WCI  30
$$

REGIONAL REPORTS...WYOMING/IDAHO/WASHINGTON
CITY           SKY/WX    TMP DP  RH WIND       PRES   REMARKS
GILLETTE       CLOUDY    43  36  76 S15       29.85F
SHERIDAN       CLOUDY    43  36  76 S3        29.80F
CODY           MOCLDY    46  25  44 SW7       29.82F
YELLOWSTONE LA PTCLDY    27  21  78 CALM      29.96F
SALMON         CLOUDY    52  30  43 E3        29.70R
MULLAN PASS    LGT SNOW  32  30  92 SW8       29.74S VSB 1/2  WCI  25
SPOKANE        CLOUDY    46  43  89 S22G28    29.72F

$$




USA.gov is the U.S. government's official web portal to all federal, state and local government web resources and services.